When you browse on this site, cookies collect data to enhance your experience and personalize the content and advertising you see.
Visit our Privacy Policy to learn more. By continuing to use the site, you agree to this use of cookies and data.
  • In United Kingdom
  • List of Countries
  • For 7 days
  • Water Temperature
  • Satellite Maps
  • Weather Map
  • Weather Widgets
  • user-avatar
    Login

    Hourly Weather Santa Maria Asuncion Tlaxiaco

    Today, 19 March, Tuesday

    Time Temperature Precipitation Wind Pressure Humidity
    00:00 +14°C° 0.1 mm 1 mps 594 mmHg 93%
    01:00 +14°C° 0.1 mm 1 mps 593 mmHg 93%
    02:00 +13°C° 0.1 mm 1 mps 593 mmHg 94%
    03:00 +13°C° 0 mm 1 mps 593 mmHg 94%
    04:00 +13°C° 0 mm 1 mps 593 mmHg 94%
    05:00 +12°C° 0 mm 1 mps 593 mmHg 94%
    06:00 +14°C° 0 mm 1 mps 594 mmHg 86%
    07:00 +16°C° 0 mm 1 mps 595 mmHg 78%
    08:00 +18°C° 0 mm 1 mps 596 mmHg 70%
    09:00 +20°C° 0 mm 1 mps 597 mmHg 61%
    10:00 +22°C° 0 mm 1 mps 597 mmHg 53%
    11:00 +23°C° 0 mm 1 mps 598 mmHg 45%
    12:00 +23°C° 0 mm 2 mps 597 mmHg 44%
    13:00 +23°C° 0 mm 2 mps 596 mmHg 43%
    14:00 +23°C° 0 mm 2 mps 596 mmHg 42%
    15:00 +21°C° 0.1 mm 2 mps 595 mmHg 48%
    16:00 +20°C° 0.1 mm 2 mps 595 mmHg 54%
    17:00 +19°C° 0.1 mm 2 mps 594 mmHg 60%
    18:00 +18°C° 0.1 mm 2 mps 594 mmHg 70%
    19:00 +16°C° 0.1 mm 2 mps 594 mmHg 79%
    20:00 +15°C° 0.1 mm 2 mps 594 mmHg 89%
    21:00 +15°C° 0 mm 1 mps 594 mmHg 90%
    22:00 +14°C° 0 mm 1 mps 594 mmHg 91%
    23:00 +14°C° 0 mm 1 mps 595 mmHg 93%

    Tomorrow, 20 March, Wednesday

    Time Temperature Precipitation Wind Pressure Humidity
    00:00 +14°C° 0 mm 1 mps 594 mmHg 92%
    01:00 +14°C° 0 mm 1 mps 594 mmHg 91%
    02:00 +13°C° 0 mm 1 mps 593 mmHg 90%
    03:00 +13°C° 0 mm 1 mps 593 mmHg 91%
    04:00 +13°C° 0 mm 1 mps 593 mmHg 91%
    05:00 +12°C° 0 mm 1 mps 593 mmHg 91%
    06:00 +14°C° 0 mm 1 mps 594 mmHg 83%
    07:00 +15°C° 0 mm 1 mps 595 mmHg 75%
    08:00 +18°C° 0 mm 1 mps 596 mmHg 67%
    09:00 +20°C° 0 mm 1 mps 597 mmHg 59%
    10:00 +21°C° 0 mm 1 mps 597 mmHg 52%
    11:00 +23°C° 0 mm 1 mps 598 mmHg 44%
    12:00 +23°C° 0.1 mm 1 mps 597 mmHg 45%
    13:00 +23°C° 0.1 mm 1 mps 596 mmHg 46%
    14:00 +21°C° 0.1 mm 2 mps 595 mmHg 48%
    15:00 +20°C° 0.2 mm 2 mps 595 mmHg 53%
    16:00 +20°C° 0.2 mm 2 mps 595 mmHg 58%
    17:00 +19°C° 0.2 mm 2 mps 594 mmHg 63%
    18:00 +18°C° 0.2 mm 2 mps 594 mmHg 70%
    19:00 +16°C° 0.2 mm 1 mps 594 mmHg 77%
    20:00 +15°C° 0.2 mm 1 mps 595 mmHg 84%
    21:00 +14°C° 0.1 mm 1 mps 595 mmHg 85%
    22:00 +14°C° 0.1 mm 1 mps 595 mmHg 86%
    23:00 +14°C° 0.1 mm 2 mps 595 mmHg 87%

    Day after tomorrow, 21 March, Thursday

    Time Temperature Precipitation Wind Pressure Humidity
    00:00 +14°C° 0.1 mm 2 mps 594 mmHg 88%
    01:00 +13°C° 0.1 mm 1 mps 594 mmHg 89%
    02:00 +13°C° 0.1 mm 1 mps 593 mmHg 89%
    03:00 +13°C° 0 mm 2 mps 593 mmHg 89%
    04:00 +12°C° 0 mm 2 mps 593 mmHg 89%
    05:00 +12°C° 0 mm 2 mps 593 mmHg 89%
    06:00 +14°C° 0 mm 2 mps 594 mmHg 80%
    07:00 +15°C° 0 mm 2 mps 596 mmHg 72%
    08:00 +18°C° 0 mm 1 mps 597 mmHg 64%
    09:00 +20°C° 0 mm 1 mps 597 mmHg 56%
    10:00 +22°C° 0 mm 1 mps 598 mmHg 48%
    11:00 +24°C° 0 mm 1 mps 598 mmHg 40%
    12:00 +23°C° 0 mm 1 mps 597 mmHg 42%
    13:00 +22°C° 0 mm 1 mps 596 mmHg 44%
    14:00 +21°C° 0 mm 2 mps 595 mmHg 47%
    15:00 +20°C° 0.2 mm 2 mps 595 mmHg 53%
    16:00 +19°C° 0.2 mm 2 mps 594 mmHg 60%
    17:00 +18°C° 0.2 mm 2 mps 594 mmHg 66%
    18:00 +17°C° 0.2 mm 2 mps 595 mmHg 71%
    19:00 +16°C° 0.2 mm 2 mps 595 mmHg 75%
    20:00 +15°C° 0.2 mm 2 mps 595 mmHg 79%
    21:00 +15°C° 0 mm 2 mps 595 mmHg 79%
    22:00 +15°C° 0 mm 2 mps 595 mmHg 80%
    23:00 +14°C° 0 mm 2 mps 595 mmHg 80%

    22 March, Friday

    Time Temperature Precipitation Wind Pressure Humidity
    00:00 +14°C° 0 mm 2 mps 595 mmHg 82%
    01:00 +13°C° 0 mm 2 mps 594 mmHg 83%
    02:00 +13°C° 0 mm 2 mps 593 mmHg 85%
    03:00 +12°C° 0 mm 1 mps 593 mmHg 85%
    04:00 +12°C° 0 mm 1 mps 593 mmHg 85%
    05:00 +12°C° 0 mm 1 mps 593 mmHg 85%
    06:00 +14°C° 0 mm 1 mps 594 mmHg 78%
    07:00 +15°C° 0 mm 1 mps 596 mmHg 70%
    08:00 +18°C° 0 mm 1 mps 597 mmHg 63%
    09:00 +20°C° 0 mm 1 mps 597 mmHg 57%
    10:00 +21°C° 0 mm 1 mps 597 mmHg 51%
    11:00 +23°C° 0 mm 1 mps 598 mmHg 46%
    12:00 +23°C° 0.5 mm 2 mps 597 mmHg 46%
    13:00 +23°C° 0.5 mm 2 mps 596 mmHg 46%
    14:00 +23°C° 0.5 mm 2 mps 595 mmHg 46%
    15:00 +21°C° 0.5 mm 2 mps 595 mmHg 50%
    16:00 +20°C° 0.5 mm 2 mps 595 mmHg 54%
    17:00 +19°C° 0.5 mm 2 mps 595 mmHg 58%
    18:00 +18°C° 0.1 mm 2 mps 594 mmHg 67%
    19:00 +16°C° 0.1 mm 2 mps 594 mmHg 76%
    20:00 +14°C° 0.1 mm 1 mps 594 mmHg 84%
    21:00 +14°C° 0 mm 1 mps 594 mmHg 86%
    22:00 +14°C° 0 mm 1 mps 594 mmHg 89%
    23:00 +13°C° 0 mm 1 mps 594 mmHg 91%

    23 March, Saturday

    Time Temperature Precipitation Wind Pressure Humidity
    00:00 +13°C° 0 mm 1 mps 593 mmHg 91%
    01:00 +12°C° 0 mm 1 mps 593 mmHg 91%
    02:00 +12°C° 0 mm 1 mps 592 mmHg 90%
    03:00 +12°C° 0 mm 1 mps 592 mmHg 89%
    04:00 +12°C° 0 mm 1 mps 593 mmHg 88%
    05:00 +11°C° 0 mm 1 mps 593 mmHg 87%
    06:00 +13°C° 0 mm 0 mps 594 mmHg 77%
    07:00 +15°C° 0 mm 0 mps 595 mmHg 66%
    08:00 +17°C° 0 mm 0 mps 597 mmHg 56%
    09:00 +21°C° 0 mm 1 mps 597 mmHg 49%
    10:00 +21°C° 0 mm 2 mps 597 mmHg 42%
    11:00 +24°C° 0 mm 2 mps 597 mmHg 36%
    12:00 +24°C° 0 mm 3 mps 597 mmHg 34%
    13:00 +24°C° 0 mm 3 mps 596 mmHg 33%
    14:00 +25°C° 0 mm 3 mps 596 mmHg 31%
    15:00 +24°C° 0 mm 3 mps 595 mmHg 36%
    16:00 +21°C° 0 mm 3 mps 595 mmHg 40%
    17:00 +20°C° 0 mm 3 mps 595 mmHg 45%
    18:00 +18°C° 0 mm 3 mps 594 mmHg 55%
    19:00 +17°C° 0 mm 2 mps 594 mmHg 66%
    20:00 +15°C° 0 mm 1 mps 594 mmHg 77%
    21:00 +14°C° 0 mm 1 mps 594 mmHg 80%
    22:00 +14°C° 0 mm 1 mps 594 mmHg 84%
    23:00 +13°C° 0 mm 1 mps 593 mmHg 87%

    24 March, Sunday

    Time Temperature Precipitation Wind Pressure Humidity
    00:00 +13°C° 0 mm 1 mps 593 mmHg 87%
    01:00 +13°C° 0 mm 1 mps 593 mmHg 87%
    02:00 +12°C° 0 mm 1 mps 592 mmHg 88%
    03:00 +12°C° 0 mm 1 mps 592 mmHg 85%
    04:00 +12°C° 0 mm 1 mps 592 mmHg 83%
    05:00 +12°C° 0 mm 1 mps 592 mmHg 81%
    06:00 +14°C° 0 mm 1 mps 594 mmHg 69%
    07:00 +18°C° 0 mm 1 mps 595 mmHg 57%
    08:00 +20°C° 0 mm 1 mps 597 mmHg 44%
    09:00 +22°C° 0 mm 1 mps 597 mmHg 40%
    10:00 +24°C° 0 mm 1 mps 597 mmHg 35%
    11:00 +26°C° 0 mm 1 mps 598 mmHg 31%
    12:00 +26°C° 0 mm 1 mps 597 mmHg 30%
    13:00 +26°C° 0 mm 2 mps 596 mmHg 30%
    14:00 +26°C° 0 mm 2 mps 596 mmHg 29%
    15:00 +25°C° 0 mm 2 mps 595 mmHg 34%
    16:00 +24°C° 0 mm 3 mps 595 mmHg 38%
    17:00 +22°C° 0 mm 3 mps 594 mmHg 43%
    18:00 +20°C° 0 mm 2 mps 594 mmHg 52%
    19:00 +18°C° 0 mm 2 mps 594 mmHg 61%
    20:00 +16°C° 0 mm 1 mps 593 mmHg 69%
    21:00 +15°C° 0 mm 1 mps 593 mmHg 70%
    22:00 +15°C° 0 mm 1 mps 593 mmHg 71%
    23:00 +15°C° 0 mm 1 mps 593 mmHg 71%
    Show more